| time (UTC) | temp F | wind direction | speed knots | gust knots | rain 1hr in | rain 24hr in | rain mn in | humidity % | barometer mb |
| 20260504043824 | 75 | 316 | 0.0 | 0.0 | 0.00 | 0.00 | 0.00 | 24 | 1012.1 |
| 20260504043321 | 75 | 317 | 0.0 | 0.0 | 0.00 | 0.00 | 0.00 | 24 | 1012.2 |
| 20260504042818 | 76 | 317 | 0.9 | 1.7 | 0.00 | 0.00 | 0.00 | 24 | 1012.0 |
| 20260504042314 | 76 | 274 | 0.0 | 0.0 | 0.00 | 0.00 | 0.00 | 23 | 1011.7 |
| 20260504041811 | 76 | 288 | 0.9 | 0.9 | 0.00 | 0.00 | 0.00 | 23 | 1011.8 |
| 20260504041307 | 76 | 294 | 1.7 | 1.7 | 0.00 | 0.00 | 0.00 | 23 | 1011.8 |
| 20260504040803 | 77 | 227 | 0.9 | 0.9 | 0.00 | 0.00 | 0.00 | 22 | 1011.8 |
| 20260504040301 | 77 | 286 | 0.9 | 0.9 | 0.00 | 0.00 | 0.00 | 22 | 1011.4 |
| 20260504035756 | 77 | 269 | 0.9 | 0.9 | 0.00 | 0.00 | 0.00 | 22 | 1011.4 |
| 20260504035254 | 77 | 245 | 2.6 | 4.3 | 0.00 | 0.00 | 0.00 | 21 | 1011.1 |
| 20260504034751 | 77 | 279 | 1.7 | 1.7 | 0.00 | 0.00 | 0.00 | 21 | 1011.2 |
| 20260504034248 | 78 | 267 | 0.9 | 0.9 | 0.00 | 0.00 | 0.00 | 21 | 1010.9 |
| 20260504033746 | 78 | 265 | 3.5 | 5.2 | 0.00 | 0.00 | 0.00 | 20 | 1010.9 |
| 20260504033243 | 78 | 266 | 1.7 | 1.7 | 0.00 | 0.00 | 0.00 | 20 | 1011.0 |
| 20260504032740 | 78 | 298 | 1.7 | 1.7 | 0.00 | 0.00 | 0.00 | 20 | 1010.7 |
| 20260504032237 | 78 | 275 | 2.6 | 7.8 | 0.00 | 0.00 | 0.00 | 20 | 1010.5 |
| 20260504031734 | 79 | 259 | 0.9 | 0.9 | 0.00 | 0.00 | 0.00 | 19 | 1010.5 |
| 20260504031231 | 79 | 246 | 6.1 | 7.0 | 0.00 | 0.00 | 0.00 | 19 | 1010.5 |
| 20260504030727 | 80 | 296 | 2.6 | 2.6 | 0.00 | 0.00 | 0.00 | 18 | 1010.2 |
| 20260504030225 | 79 | 280 | 1.7 | 2.6 | 0.00 | 0.00 | 0.00 | 18 | 1010.0 |
| 20260504025721 | 79 | 267 | 3.5 | 6.1 | 0.00 | 0.00 | 0.00 | 18 | 1010.2 |
| 20260504025218 | 80 | 281 | 0.9 | 0.9 | 0.00 | 0.00 | 0.00 | 17 | 1009.8 |
| 20260504024715 | 80 | 250 | 3.5 | 5.2 | 0.00 | 0.00 | 0.00 | 16 | 1009.8 |
| 20260504024211 | 81 | 287 | 0.9 | 0.9 | 0.00 | 0.00 | 0.00 | 17 | 1009.9 |
| 20260504023708 | 81 | 249 | 2.6 | 2.6 | 0.00 | 0.00 | 0.00 | 16 | 1009.6 |
| 20260504023204 | 81 | 295 | 2.6 | 4.3 | 0.00 | 0.00 | 0.00 | 16 | 1009.3 |
| 20260504022700 | 81 | 262 | 0.9 | 0.9 | 0.00 | 0.00 | 0.00 | 16 | 1009.1 |
| 20260504022156 | 82 | 279 | 3.5 | 4.3 | 0.00 | 0.00 | 0.00 | 15 | 1009.2 |
| 20260504021654 | 82 | 261 | 1.7 | 1.7 | 0.00 | 0.00 | 0.00 | 15 | 1009.2 |
| 20260504021150 | 82 | 285 | 7.0 | 7.8 | 0.00 | 0.00 | 0.00 | 14 | 1009.2 |
| 20260504020648 | 83 | 267 | 3.5 | 4.3 | 0.00 | 0.00 | 0.00 | 14 | 1009.1 |
| 20260504020143 | 83 | 251 | 3.5 | 5.2 | 0.00 | 0.00 | 0.00 | 14 | 1008.7 |
| 20260504015641 | 83 | 288 | 2.6 | 4.3 | 0.00 | 0.00 | 0.00 | 13 | 1008.5 |
| 20260504015137 | 84 | 319 | 2.6 | 4.3 | 0.00 | 0.00 | 0.00 | 13 | 1008.7 |
| 20260504014632 | 84 | 268 | 4.3 | 6.1 | 0.00 | 0.00 | 0.00 | 12 | 1008.7 |
| 20260504014130 | 84 | 271 | 3.5 | 5.2 | 0.00 | 0.00 | 0.00 | 12 | 1008.6 |
| 20260504013628 | 84 | 261 | 1.7 | 2.6 | 0.00 | 0.00 | 0.00 | 12 | 1008.6 |
| 20260504013124 | 85 | 261 | 5.2 | 6.1 | 0.00 | 0.00 | 0.00 | 12 | 1008.5 |
| 20260504012621 | 86 | 245 | 7.8 | 9.6 | 0.00 | 0.00 | 0.00 | 11 | 1008.5 |
| 20260504012120 | 86 | 280 | 3.5 | 5.2 | 0.00 | 0.00 | 0.00 | 12 | 1008.3 |
| 20260504011616 | 86 | 262 | 6.1 | 9.6 | 0.00 | 0.00 | 0.00 | 12 | 1008.4 |
| 20260504011112 | 86 | 250 | 4.3 | 6.1 | 0.00 | 0.00 | 0.00 | 12 | 1008.5 |
| 20260504010608 | 87 | 222 | 6.1 | 8.7 | 0.00 | 0.00 | 0.00 | 12 | 1008.9 |
| 20260504010104 | 87 | 259 | 7.8 | 9.6 | 0.00 | 0.00 | 0.00 | 12 | 1008.6 |
| 20260504005601 | 87 | 256 | 7.0 | 7.8 | 0.00 | 0.00 | 0.00 | 11 | 1008.9 |
| 20260504005058 | 87 | 246 | 7.0 | 8.7 | 0.00 | 0.00 | 0.00 | 11 | 1008.8 |
| 20260504004556 | 87 | 253 | 9.6 | 13.0 | 0.00 | 0.00 | 0.00 | 11 | 1009.0 |
| 20260504004053 | 87 | 227 | 6.1 | 7.0 | 0.00 | 0.00 | 0.00 | 11 | 1008.7 |
| 20260504003549 | 87 | 283 | 6.1 | 7.0 | 0.00 | 0.00 | 0.00 | 11 | 1008.7 |
| 20260504003046 | 87 | 249 | 6.1 | 8.7 | 0.00 | 0.00 | 0.00 | 12 | 1008.8 |
| 20260504002543 | 88 | 300 | 7.8 | 8.7 | 0.00 | 0.00 | 0.00 | 12 | 1008.7 |
| 20260504002041 | 88 | 284 | 7.0 | 12.2 | 0.00 | 0.00 | 0.00 | 12 | 1008.6 |
| 20260504001538 | 89 | 239 | 10.4 | 12.2 | 0.00 | 0.00 | 0.00 | 12 | 1008.7 |
| 20260504001034 | 89 | 237 | 8.7 | 9.6 | 0.00 | 0.00 | 0.00 | 12 | 1008.6 |
| 20260504000531 | 89 | 216 | 9.6 | 12.2 | 0.00 | 0.00 | 0.00 | 12 | 1008.5 |
| 20260504000029 | 90 | 246 | 7.0 | 8.7 | 0.00 | 0.00 | 0.00 | 12 | 1008.6 |
| 20260503235527 | 90 | 255 | 5.2 | 7.8 | 0.00 | 0.00 | 0.00 | 12 | 1008.4 |
| 20260503235023 | 90 | 269 | 5.2 | 6.1 | 0.00 | 0.00 | 0.00 | 12 | 1008.6 |
| 20260503234521 | 90 | 269 | 7.8 | 8.7 | 0.00 | 0.00 | 0.00 | 12 | 1008.3 |
| 20260503234019 | 90 | 263 | 7.0 | 8.7 | 0.00 | 0.00 | 0.00 | 12 | 1008.3 |
| 20260503233515 | 90 | 232 | 4.3 | 5.2 | 0.00 | 0.00 | 0.00 | 12 | 1008.1 |
| 20260503233011 | 91 | 278 | 8.7 | 11.3 | 0.00 | 0.00 | 0.00 | 12 | 1008.4 |
| 20260503232508 | 91 | 213 | 4.3 | 5.2 | 0.00 | 0.00 | 0.00 | 12 | 1008.5 |
| 20260503232006 | 91 | 213 | 7.0 | 7.8 | 0.00 | 0.00 | 0.00 | 12 | 1008.3 |
| 20260503231504 | 91 | 197 | 2.6 | 2.6 | 0.00 | 0.00 | 0.00 | 14 | 1008.4 |
| 20260503231000 | 92 | 260 | 4.3 | 5.2 | 0.00 | 0.00 | 0.00 | 12 | 1008.2 |
| 20260503230457 | 91 | 241 | 4.3 | 6.1 | 0.00 | 0.00 | 0.00 | 14 | 1008.2 |
| 20260503225954 | 91 | 258 | 5.2 | 7.0 | 0.00 | 0.00 | 0.00 | 13 | 1008.3 |
| 20260503225451 | 91 | 199 | 6.1 | 7.8 | 0.00 | 0.00 | 0.00 | 14 | 1008.3 |
| 20260503224946 | 91 | 248 | 4.3 | 6.1 | 0.00 | 0.00 | 0.00 | 14 | 1008.4 |
| 20260503224443 | 91 | 231 | 3.5 | 5.2 | 0.00 | 0.00 | 0.00 | 13 | 1008.5 |
| 20260503223941 | 91 | 250 | 4.3 | 5.2 | 0.00 | 0.00 | 0.00 | 13 | 1008.9 |
| 20260503223439 | 91 | 237 | 5.2 | 7.8 | 0.00 | 0.00 | 0.00 | 14 | 1008.7 |
| 20260503222934 | 91 | 302 | 9.6 | 12.2 | 0.00 | 0.00 | 0.00 | 13 | 1008.9 |
| 20260503222433 | 91 | 284 | 2.6 | 2.6 | 0.00 | 0.00 | 0.00 | 13 | 1008.6 |
| 20260503221931 | 92 | 244 | 4.3 | 5.2 | 0.00 | 0.00 | 0.00 | 13 | 1009.0 |
| 20260503221429 | 93 | 207 | 3.5 | 4.3 | 0.00 | 0.00 | 0.00 | 13 | 1008.8 |
| 20260503220926 | 92 | 172 | 1.7 | 2.6 | 0.00 | 0.00 | 0.00 | 13 | 1008.8 |
| 20260503220422 | 92 | 119 | 0.9 | 0.9 | 0.00 | 0.00 | 0.00 | 13 | 1008.9 |
| 20260503215919 | 91 | 204 | 2.6 | 4.3 | 0.00 | 0.00 | 0.00 | 13 | 1009.0 |
| 20260503215416 | 90 | 249 | 4.3 | 6.1 | 0.00 | 0.00 | 0.00 | 14 | 1008.7 |
| 20260503214914 | 90 | 239 | 2.6 | 4.3 | 0.00 | 0.00 | 0.00 | 14 | 1008.9 |
| 20260503214411 | 90 | 171 | 3.5 | 5.2 | 0.00 | 0.00 | 0.00 | 14 | 1009.3 |
| 20260503213908 | 90 | 99 | 0.9 | 0.9 | 0.00 | 0.00 | 0.00 | 18 | 1009.2 |
| 20260503213406 | 89 | 84 | 0.0 | 0.9 | 0.00 | 0.00 | 0.00 | 20 | 1009.3 |
| 20260503212902 | 89 | 150 | 1.7 | 1.7 | 0.00 | 0.00 | 0.00 | 20 | 1009.6 |
| 20260503212400 | 89 | 113 | 0.9 | 0.9 | 0.00 | 0.00 | 0.00 | 22 | 1009.6 |
| 20260503211857 | 90 | 17 | 2.6 | 4.3 | 0.00 | 0.00 | 0.00 | 21 | 1009.6 |
| 20260503211354 | 90 | 221 | 0.0 | 0.0 | 0.00 | 0.00 | 0.00 | 22 | 1009.8 |
| 20260503210849 | 89 | 209 | 1.7 | 2.6 | 0.00 | 0.00 | 0.00 | 22 | 1010.0 |
| 20260503210347 | 88 | 110 | 0.0 | 0.0 | 0.00 | 0.00 | 0.00 | 23 | 1010.0 |
| 20260503205841 | 89 | 107 | 0.9 | 0.9 | 0.00 | 0.00 | 0.00 | 23 | 1010.1 |
| 20260503205338 | 89 | 226 | 0.0 | 0.0 | 0.00 | 0.00 | 0.00 | 22 | 1009.9 |
| 20260503204834 | 88 | 102 | 0.9 | 0.9 | 0.00 | 0.00 | 0.00 | 22 | 1010.2 |
| 20260503204332 | 87 | 256 | 2.6 | 2.6 | 0.00 | 0.00 | 0.00 | 22 | 1010.3 |
| 20260503203829 | 88 | 147 | 2.6 | 2.6 | 0.00 | 0.00 | 0.00 | 22 | 1010.4 |
| 20260503203327 | 87 | 114 | 0.9 | 0.9 | 0.00 | 0.00 | 0.00 | 23 | 1010.2 |
| 20260503202823 | 87 | 75 | 1.7 | 1.7 | 0.00 | 0.00 | 0.00 | 23 | 1010.6 |
| 20260503202322 | 87 | 109 | 1.7 | 2.6 | 0.00 | 0.00 | 0.00 | 24 | 1010.4 |
| 20260503201820 | 87 | 79 | 1.7 | 1.7 | 0.00 | 0.00 | 0.00 | 23 | 1010.6 |
| 20260503201316 | 87 | 102 | 0.0 | 0.0 | 0.00 | 0.00 | 0.00 | 24 | 1010.6 |
| 20260503200814 | 87 | 79 | 3.5 | 5.2 | 0.00 | 0.00 | 0.00 | 23 | 1010.7 |
| 20260503200309 | 87 | 103 | 1.7 | 1.7 | 0.00 | 0.00 | 0.00 | 23 | 1010.6 |
| 20260503195807 | 87 | 18 | 2.6 | 2.6 | 0.00 | 0.00 | 0.00 | 23 | 1011.2 |
| 20260503195304 | 87 | 154 | 2.6 | 2.6 | 0.00 | 0.00 | 0.00 | 22 | 1011.2 |
| 20260503194801 | 87 | 105 | 2.6 | 2.6 | 0.00 | 0.00 | 0.00 | 21 | 1011.1 |
| 20260503194256 | 86 | 132 | 0.0 | 0.9 | 0.00 | 0.00 | 0.00 | 22 | 1011.3 |
| 20260503193753 | 86 | 157 | 1.7 | 1.7 | 0.00 | 0.00 | 0.00 | 22 | 1011.2 |
| 20260503193249 | 86 | 137 | 5.2 | 7.0 | 0.00 | 0.00 | 0.00 | 22 | 1011.3 |
| 20260503192745 | 86 | 210 | 1.7 | 2.6 | 0.00 | 0.00 | 0.00 | 23 | 1011.3 |
| 20260503192240 | 85 | 92 | 3.5 | 6.1 | 0.00 | 0.00 | 0.00 | 25 | 1011.2 |
| 20260503191737 | 85 | 83 | 3.5 | 4.3 | 0.00 | 0.00 | 0.00 | 25 | 1011.3 |
| 20260503191234 | 85 | 164 | 2.6 | 2.6 | 0.00 | 0.00 | 0.00 | 26 | 1011.6 |
| 20260503190731 | 85 | 111 | 3.5 | 4.3 | 0.00 | 0.00 | 0.00 | 26 | 1011.7 |
| 20260503190228 | 85 | 157 | 1.7 | 1.7 | 0.00 | 0.00 | 0.00 | 27 | 1011.6 |
| 20260503185725 | 84 | 138 | 3.5 | 4.3 | 0.00 | 0.00 | 0.00 | 27 | 1011.6 |
| 20260503185220 | 84 | 138 | 1.7 | 2.6 | 0.00 | 0.00 | 0.00 | 27 | 1011.8 |
| 20260503184715 | 83 | 146 | 1.7 | 1.7 | 0.00 | 0.00 | 0.00 | 27 | 1012.0 |
| 20260503184212 | 83 | 113 | 3.5 | 4.3 | 0.00 | 0.00 | 0.00 | 28 | 1012.4 |
| 20260503183708 | 83 | 139 | 2.6 | 2.6 | 0.00 | 0.00 | 0.00 | 28 | 1012.2 |
| 20260503183206 | 83 | 176 | 1.7 | 1.7 | 0.00 | 0.00 | 0.00 | 28 | 1012.5 |
| 20260503182704 | 83 | 135 | 3.5 | 5.2 | 0.00 | 0.00 | 0.00 | 28 | 1012.5 |
| 20260503182202 | 82 | 110 | 2.6 | 2.6 | 0.00 | 0.00 | 0.00 | 28 | 1012.4 |
| 20260503181658 | 82 | 122 | 4.3 | 5.2 | 0.00 | 0.00 | 0.00 | 28 | 1012.7 |
| 20260503181155 | 83 | 129 | 4.3 | 5.2 | 0.00 | 0.00 | 0.00 | 28 | 1012.6 |
| 20260503180652 | 82 | 151 | 2.6 | 2.6 | 0.00 | 0.00 | 0.00 | 28 | 1012.7 |
| 20260503180150 | 82 | 151 | 5.2 | 6.1 | 0.00 | 0.00 | 0.00 | 28 | 1012.8 |
| 20260503175647 | 81 | 146 | 1.7 | 2.6 | 0.00 | 0.00 | 0.00 | 29 | 1013.0 |
| 20260503175144 | 81 | 90 | 3.5 | 5.2 | 0.00 | 0.00 | 0.00 | 29 | 1012.8 |
| 20260503174640 | 81 | 143 | 2.6 | 2.6 | 0.00 | 0.00 | 0.00 | 29 | 1013.0 |
| 20260503174137 | 82 | 201 | 1.7 | 2.6 | 0.00 | 0.00 | 0.00 | 29 | 1013.0 |
| 20260503173633 | 82 | 195 | 2.6 | 2.6 | 0.00 | 0.00 | 0.00 | 29 | 1013.1 |
| 20260503173130 | 82 | 161 | 1.7 | 1.7 | 0.00 | 0.00 | 0.00 | 28 | 1012.9 |
| 20260503172626 | 82 | 193 | 1.7 | 1.7 | 0.00 | 0.00 | 0.00 | 28 | 1013.2 |
| 20260503172124 | 82 | 118 | 2.6 | 2.6 | 0.00 | 0.00 | 0.00 | 29 | 1013.0 |
| 20260503171620 | 82 | 127 | 1.7 | 1.7 | 0.00 | 0.00 | 0.00 | 29 | 1013.3 |
| 20260503171117 | 82 | 177 | 2.6 | 2.6 | 0.00 | 0.00 | 0.00 | 29 | 1013.1 |
| 20260503170614 | 82 | 112 | 2.6 | 2.6 | 0.00 | 0.00 | 0.00 | 29 | 1013.1 |
| 20260503170111 | 81 | 113 | 3.5 | 4.3 | 0.00 | 0.00 | 0.00 | 29 | 1013.1 |
| 20260503151006 | 76 | 107 | 0.0 | 0.0 | 0.00 | 0.00 | 0.00 | 35 | 1013.3 |
| 20260503150503 | 76 | 134 | 0.9 | 0.9 | 0.00 | 0.00 | 0.00 | 35 | 1013.3 |
| 20260503131355 | 70 | 90 | 0.9 | 0.9 | 0.00 | 0.00 | 0.00 | 39 | 1012.6 |
| 20260503130853 | 70 | 76 | 0.9 | 0.9 | 0.00 | 0.00 | 0.00 | 39 | 1012.6 |
| 20260503130350 | 70 | 86 | 0.0 | 0.0 | 0.00 | 0.00 | 0.00 | 39 | 1012.4 |
| 20260503110744 | 74 | 135 | 3.5 | 4.3 | 0.00 | 0.00 | 0.00 | 34 | 1011.9 |
| 20260503110241 | 74 | 100 | 0.9 | 0.9 | 0.00 | 0.00 | 0.00 | 34 | 1012.0 |
| 20260503100207 | 75 | 127 | 0.9 | 1.7 | 0.00 | 0.00 | 0.00 | 33 | 1012.2 |
| 20260503090132 | 74 | 126 | 2.6 | 2.6 | 0.00 | 0.00 | 0.00 | 33 | 1012.2 |
| 20260503081602 | 75 | 93 | 1.7 | 2.6 | 0.00 | 0.00 | 0.00 | 32 | 1012.2 |
| 20260503081059 | 75 | 106 | 0.9 | 1.7 | 0.00 | 0.00 | 0.00 | 31 | 1012.2 |
| 20260503080555 | 76 | 131 | 0.9 | 0.9 | 0.00 | 0.00 | 0.00 | 31 | 1012.5 |
| 20260503072529 | 76 | 109 | 2.6 | 4.3 | 0.00 | 0.00 | 0.00 | 30 | 1012.7 |
| 20260503072026 | 77 | 107 | 0.9 | 0.9 | 0.00 | 0.00 | 0.00 | 30 | 1012.6 |
| 20260503071523 | 77 | 146 | 0.9 | 0.9 | 0.00 | 0.00 | 0.00 | 29 | 1012.7 |
| 20260503071020 | 77 | 116 | 4.3 | 7.0 | 0.00 | 0.00 | 0.00 | 29 | 1012.7 |
| 20260503070516 | 77 | 154 | 2.6 | 6.1 | 0.00 | 0.00 | 0.00 | 29 | 1013.0 |
| 20260503054940 | 78 | 86 | 1.7 | 1.7 | 0.00 | 0.00 | 0.00 | 28 | 1011.7 |
| 20260503054436 | 78 | 87 | 1.7 | 2.6 | 0.00 | 0.00 | 0.00 | 28 | 1011.7 |
| 20260503053934 | 78 | 90 | 0.9 | 0.9 | 0.00 | 0.00 | 0.00 | 28 | 1011.7 |
| 20260503053431 | 78 | 97 | 2.6 | 4.3 | 0.00 | 0.00 | 0.00 | 28 | 1011.8 |
| 20260503052927 | 79 | 86 | 3.5 | 5.2 | 0.00 | 0.00 | 0.00 | 28 | 1011.7 |
| 20260503052425 | 79 | 109 | 4.3 | 6.1 | 0.00 | 0.00 | 0.00 | 28 | 1011.8 |
| 20260503051921 | 79 | 104 | 4.3 | 5.2 | 0.00 | 0.00 | 0.00 | 28 | 1011.7 |
| 20260503051417 | 79 | 67 | 2.6 | 4.3 | 0.00 | 0.00 | 0.00 | 28 | 1011.8 |
| 20260503050915 | 79 | 54 | 2.6 | 5.2 | 0.00 | 0.00 | 0.00 | 27 | 1011.8 |
| 20260503050410 | 79 | 88 | 4.3 | 6.1 | 0.00 | 0.00 | 0.00 | 27 | 1011.8 |
| 20260503045908 | 79 | 70 | 1.7 | 1.7 | 0.00 | 0.00 | 0.00 | 27 | 1011.7 |
| 20260503045405 | 79 | 79 | 4.3 | 6.1 | 0.00 | 0.00 | 0.00 | 27 | 1011.6 |
| 20260503044902 | 79 | 84 | 6.1 | 7.8 | 0.00 | 0.00 | 0.00 | 27 | 1011.6 |
| 20260503044359 | 79 | 50 | 5.2 | 6.1 | 0.00 | 0.00 | 0.00 | 27 | 1011.9 |